User: anonymous   Login
Location: State Camp
(41.2367°N, 77.7828°W)
Time: 14:25:38
(UTC-05:00)
Language:

Cosmos 1674 Rocket - Orbit

View from above orbital plane
View from above orbital plane
View from above satellite
View from above satellite

Ground track
Ground track

The orbit data is extracted from the following two-line orbital elements,

1 15945U 85069B   16043.91933850 +.00000294 +00000-0 +32435-4 0  9990
2 15945 082.5253 232.1157 0021315 099.4675 260.8951 14.83822548627241
Epoch (UTC): 12 February 2016 22:03:50
Eccentricity: 0.0021315
inclination: 82.5253°
perigee height: 602 km
apogee height: 632 km
right ascension of ascending node: 232.1157°
argument of perigee: 99.4675°
revolutions per day: 14.83822548
mean anomaly at epoch: 260.8951°
orbit number at epoch: 62724

The dashed part of the orbit path shows where the satellite is in the earth's shadow,  

DLR